Year,Month,Day,Hour,Minute,Value (Times are PST for temperature in C)
2017,03,15,00,00,10.30
2017,03,15,00,01,10.30
2017,03,15,00,02,10.30
2017,03,15,00,03,10.20
2017,03,15,00,04,10.20
2017,03,15,00,05,10.20
2017,03,15,00,06,10.20
2017,03,15,00,07,10.20
2017,03,15,00,08,10.20
2017,03,15,00,09,10.20
2017,03,15,00,10,10.20
2017,03,15,00,11,10.20
2017,03,15,00,12,10.20
2017,03,15,00,13,10.20
2017,03,15,00,14,10.20
2017,03,15,00,15,10.20
2017,03,15,00,16,10.20
2017,03,15,00,17,10.20
2017,03,15,00,18,10.20
2017,03,15,00,19,10.20
2017,03,15,00,20,10.20
2017,03,15,00,21,10.20
2017,03,15,00,22,10.20
2017,03,15,00,23,10.20
2017,03,15,00,24,10.20
2017,03,15,00,25,10.20
2017,03,15,00,26,10.10
2017,03,15,00,27,10.10
2017,03,15,00,28,10.10
2017,03,15,00,29,10.00
2017,03,15,00,30,10.00
2017,03,15,00,31,9.90
2017,03,15,00,32,9.90
2017,03,15,00,33,9.90
2017,03,15,00,34,9.90
2017,03,15,00,35,9.90
2017,03,15,00,36,9.80
2017,03,15,00,37,9.80
2017,03,15,00,38,9.70
2017,03,15,00,39,9.60
2017,03,15,00,40,9.50
2017,03,15,00,41,9.40
2017,03,15,00,42,9.40
2017,03,15,00,43,9.30
2017,03,15,00,44,9.30
2017,03,15,00,45,9.20
2017,03,15,00,46,9.20
2017,03,15,00,47,9.20
2017,03,15,00,48,9.10
2017,03,15,00,49,9.10
2017,03,15,00,50,9.10
2017,03,15,00,51,9.10
2017,03,15,00,52,9.10
2017,03,15,00,53,9.00
2017,03,15,00,54,9.00
2017,03,15,00,55,9.00
2017,03,15,00,56,8.90
2017,03,15,00,57,8.90
2017,03,15,00,58,8.90
2017,03,15,00,59,8.90
2017,03,15,01,00,8.90
2017,03,15,01,01,9.00
2017,03,15,01,02,9.00
2017,03,15,01,03,8.90
2017,03,15,01,04,8.90
2017,03,15,01,05,8.90
2017,03,15,01,06,8.90
2017,03,15,01,07,8.80
2017,03,15,01,08,8.80
2017,03,15,01,09,8.80
2017,03,15,01,10,8.80
2017,03,15,01,11,8.80
2017,03,15,01,12,8.80
2017,03,15,01,13,8.80
2017,03,15,01,14,8.70
2017,03,15,01,15,8.60
2017,03,15,01,16,8.60
2017,03,15,01,17,8.50
2017,03,15,01,18,8.40
2017,03,15,01,19,8.30
2017,03,15,01,20,8.20
2017,03,15,01,21,8.10
2017,03,15,01,22,8.00
2017,03,15,01,23,7.90
2017,03,15,01,24,7.80
2017,03,15,01,25,7.80
2017,03,15,01,26,7.70
2017,03,15,01,27,7.70
2017,03,15,01,28,7.70
2017,03,15,01,29,7.60
2017,03,15,01,30,7.60
2017,03,15,01,31,7.50
2017,03,15,01,32,7.50
2017,03,15,01,33,7.40
2017,03,15,01,34,7.30
2017,03,15,01,35,7.20
2017,03,15,01,36,7.20
2017,03,15,01,37,7.20
2017,03,15,01,38,7.20
2017,03,15,01,39,7.20
2017,03,15,01,40,7.10
2017,03,15,01,41,7.10
2017,03,15,01,42,7.10
2017,03,15,01,43,7.00
2017,03,15,01,44,7.00
2017,03,15,01,45,7.00
2017,03,15,01,46,7.00
2017,03,15,01,47,7.10
2017,03,15,01,48,7.10
2017,03,15,01,49,7.10
2017,03,15,01,50,7.10
2017,03,15,01,51,7.00
2017,03,15,01,52,7.00
2017,03,15,01,53,6.90
2017,03,15,01,54,6.80
2017,03,15,01,55,6.60
2017,03,15,01,56,6.50
2017,03,15,01,57,6.40
2017,03,15,01,58,6.30
2017,03,15,01,59,6.20
2017,03,15,02,00,6.20
2017,03,15,02,01,6.10
2017,03,15,02,02,6.10
2017,03,15,02,03,6.00
2017,03,15,02,04,5.90
2017,03,15,02,05,5.90
2017,03,15,02,06,5.80
2017,03,15,02,07,5.80
2017,03,15,02,08,5.80
2017,03,15,02,09,5.80
2017,03,15,02,10,5.80
2017,03,15,02,11,5.80
2017,03,15,02,12,5.80
2017,03,15,02,13,5.80
2017,03,15,02,14,5.70
2017,03,15,02,15,5.70
2017,03,15,02,16,5.70
2017,03,15,02,17,5.70
2017,03,15,02,18,5.60
2017,03,15,02,19,5.60
2017,03,15,02,20,5.60
2017,03,15,02,21,5.50
2017,03,15,02,22,5.40
2017,03,15,02,23,5.40
2017,03,15,02,24,5.40
2017,03,15,02,25,5.30
2017,03,15,02,26,5.30
2017,03,15,02,27,5.20
2017,03,15,02,28,5.20
2017,03,15,02,29,5.10
2017,03,15,02,30,5.10
2017,03,15,02,31,5.10
2017,03,15,02,32,5.10
2017,03,15,02,33,5.10
2017,03,15,02,34,5.10
2017,03,15,02,35,5.10
2017,03,15,02,36,5.10
2017,03,15,02,37,5.00
2017,03,15,02,38,5.00
2017,03,15,02,39,5.00
2017,03,15,02,40,4.90
2017,03,15,02,41,4.90
2017,03,15,02,42,4.90
2017,03,15,02,43,4.90
2017,03,15,02,44,4.90
2017,03,15,02,45,4.80
2017,03,15,02,46,4.80
2017,03,15,02,47,4.80
2017,03,15,02,48,4.80
2017,03,15,02,49,4.80
2017,03,15,02,50,4.80
2017,03,15,02,51,4.80
2017,03,15,02,52,4.70
2017,03,15,02,53,4.70
2017,03,15,02,54,4.70
2017,03,15,02,55,4.70
2017,03,15,02,56,4.70
2017,03,15,02,57,4.70
2017,03,15,02,58,4.70
2017,03,15,02,59,4.70
2017,03,15,03,00,4.70
2017,03,15,03,01,4.70
2017,03,15,03,02,4.70
2017,03,15,03,03,4.70
2017,03,15,03,04,4.70
2017,03,15,03,05,4.70
2017,03,15,03,06,4.70
2017,03,15,03,07,4.60
2017,03,15,03,08,4.60
2017,03,15,03,09,4.60
2017,03,15,03,10,4.50
2017,03,15,03,11,4.50
2017,03,15,03,12,4.50
2017,03,15,03,13,4.40
2017,03,15,03,14,4.40
2017,03,15,03,15,4.40
2017,03,15,03,16,4.50
2017,03,15,03,17,4.50
2017,03,15,03,18,4.50
2017,03,15,03,19,4.50
2017,03,15,03,20,4.50
2017,03,15,03,21,4.60
2017,03,15,03,22,4.60
2017,03,15,03,23,4.60
2017,03,15,03,24,4.60
2017,03,15,03,25,4.60
2017,03,15,03,26,4.60
2017,03,15,03,27,4.60
2017,03,15,03,28,4.70
2017,03,15,03,29,4.70
2017,03,15,03,30,4.70
2017,03,15,03,31,4.60
2017,03,15,03,32,4.60
2017,03,15,03,33,4.60
2017,03,15,03,34,4.60
2017,03,15,03,35,4.50
2017,03,15,03,36,4.50
2017,03,15,03,37,4.50
2017,03,15,03,38,4.50
2017,03,15,03,39,4.50
2017,03,15,03,40,4.50
2017,03,15,03,41,4.50
2017,03,15,03,42,4.50
2017,03,15,03,43,4.50
2017,03,15,03,44,4.50
2017,03,15,03,45,4.50
2017,03,15,03,46,4.50
2017,03,15,03,47,4.60
2017,03,15,03,48,4.60
2017,03,15,03,49,4.50
2017,03,15,03,50,4.50
2017,03,15,03,51,4.50
2017,03,15,03,52,4.50
2017,03,15,03,53,4.50
2017,03,15,03,54,4.50
2017,03,15,03,55,4.50
2017,03,15,03,56,4.50
2017,03,15,03,57,4.50
2017,03,15,03,58,4.50
2017,03,15,03,59,4.50
2017,03,15,04,00,4.50
2017,03,15,04,01,4.50
2017,03,15,04,02,4.50
2017,03,15,04,03,4.50
2017,03,15,04,04,4.50
2017,03,15,04,05,4.50
2017,03,15,04,06,4.50
2017,03,15,04,07,4.50
2017,03,15,04,08,4.50
2017,03,15,04,09,4.50
2017,03,15,04,10,4.50
2017,03,15,04,11,4.50
2017,03,15,04,12,4.50
2017,03,15,04,13,4.50
2017,03,15,04,14,4.50
2017,03,15,04,15,4.50
2017,03,15,04,16,4.50
2017,03,15,04,17,4.50
2017,03,15,04,18,4.50
2017,03,15,04,19,4.50
2017,03,15,04,20,4.50
2017,03,15,04,21,4.50
2017,03,15,04,22,4.50
2017,03,15,04,23,4.40
2017,03,15,04,24,4.40
2017,03,15,04,25,4.40
2017,03,15,04,26,4.40
2017,03,15,04,27,4.40
2017,03,15,04,28,4.40
2017,03,15,04,29,4.40
2017,03,15,04,30,4.40
2017,03,15,04,31,4.50
2017,03,15,04,32,4.50
2017,03,15,04,33,4.50
2017,03,15,04,34,4.50
2017,03,15,04,35,4.50
2017,03,15,04,36,4.50
2017,03,15,04,37,4.60
2017,03,15,04,38,4.60
2017,03,15,04,39,4.60
2017,03,15,04,40,4.60
2017,03,15,04,41,4.60
2017,03,15,04,42,4.60
2017,03,15,04,43,4.60
2017,03,15,04,44,4.70
2017,03,15,04,45,4.70
2017,03,15,04,46,4.70
2017,03,15,04,47,4.70
2017,03,15,04,48,4.60
2017,03,15,04,49,4.60
2017,03,15,04,50,4.60
2017,03,15,04,51,4.60
2017,03,15,04,52,4.60
2017,03,15,04,53,4.50
2017,03,15,04,54,4.50
2017,03,15,04,55,4.50
2017,03,15,04,56,4.40
2017,03,15,04,57,4.40
2017,03,15,04,58,4.40
2017,03,15,04,59,4.40
2017,03,15,05,00,4.40
2017,03,15,05,01,4.40
2017,03,15,05,02,4.40
2017,03,15,05,03,4.40
2017,03,15,05,04,4.40
2017,03,15,05,05,4.40
2017,03,15,05,06,4.40
2017,03,15,05,07,4.40
2017,03,15,05,08,4.40
2017,03,15,05,09,4.30
2017,03,15,05,10,4.30
2017,03,15,05,11,4.30
2017,03,15,05,12,4.30
2017,03,15,05,13,4.30
2017,03,15,05,14,4.30
2017,03,15,05,15,4.30
2017,03,15,05,16,4.30
2017,03,15,05,17,4.40
2017,03,15,05,18,4.40
2017,03,15,05,19,4.40
2017,03,15,05,20,4.40
2017,03,15,05,21,4.40
2017,03,15,05,22,4.40
2017,03,15,05,23,4.40
2017,03,15,05,24,4.40
2017,03,15,05,25,4.50
2017,03,15,05,26,4.50
2017,03,15,05,27,4.50
2017,03,15,05,28,4.50
2017,03,15,05,29,4.40
2017,03,15,05,30,4.40
2017,03,15,05,31,4.40
2017,03,15,05,32,4.40
2017,03,15,05,33,4.40
2017,03,15,05,34,4.40
2017,03,15,05,35,4.40
2017,03,15,05,36,4.40
2017,03,15,05,37,4.40
2017,03,15,05,38,4.40
2017,03,15,05,39,4.40
2017,03,15,05,40,4.40
2017,03,15,05,41,4.40
2017,03,15,05,42,4.50
2017,03,15,05,43,4.60
2017,03,15,05,44,4.60
2017,03,15,05,45,4.70
2017,03,15,05,46,4.70
2017,03,15,05,47,4.70
2017,03,15,05,48,4.70
2017,03,15,05,49,4.70
2017,03,15,05,50,4.70
2017,03,15,05,51,4.70
2017,03,15,05,52,4.70
2017,03,15,05,53,4.70
2017,03,15,05,54,4.70
2017,03,15,05,55,4.70
2017,03,15,05,56,4.70
2017,03,15,05,57,4.70
2017,03,15,05,58,4.70
2017,03,15,05,59,4.70
2017,03,15,06,00,4.70
2017,03,15,06,01,4.60
2017,03,15,06,02,4.60
2017,03,15,06,03,4.60
2017,03,15,06,04,4.60
2017,03,15,06,05,4.60
2017,03,15,06,06,4.60
2017,03,15,06,07,4.60
2017,03,15,06,08,4.60
2017,03,15,06,09,4.60
2017,03,15,06,10,4.60
2017,03,15,06,11,4.60
2017,03,15,06,12,4.60
2017,03,15,06,13,4.60
2017,03,15,06,14,4.50
2017,03,15,06,15,4.60
2017,03,15,06,16,4.60
2017,03,15,06,17,4.60
2017,03,15,06,18,4.60
2017,03,15,06,19,4.60
2017,03,15,06,20,4.60
2017,03,15,06,21,4.60
2017,03,15,06,22,4.60
2017,03,15,06,23,4.60
2017,03,15,06,24,4.60
2017,03,15,06,25,4.60
2017,03,15,06,26,4.60
2017,03,15,06,27,4.60
2017,03,15,06,28,4.60
2017,03,15,06,29,4.60
2017,03,15,06,30,4.60
2017,03,15,06,31,4.50
2017,03,15,06,32,4.50
2017,03,15,06,33,4.50
2017,03,15,06,34,4.50
2017,03,15,06,35,4.50
2017,03,15,06,36,4.60
2017,03,15,06,37,4.60
2017,03,15,06,38,4.60
2017,03,15,06,39,4.60
2017,03,15,06,40,4.60
2017,03,15,06,41,4.60
2017,03,15,06,42,4.50
2017,03,15,06,43,4.50
2017,03,15,06,44,4.50
2017,03,15,06,45,4.40
2017,03,15,06,46,4.40
2017,03,15,06,47,4.40
2017,03,15,06,48,4.40
2017,03,15,06,49,4.40
2017,03,15,06,50,4.30
2017,03,15,06,51,4.30
2017,03,15,06,52,4.30
2017,03,15,06,53,4.30
2017,03,15,06,54,4.30
2017,03,15,06,55,4.30
2017,03,15,06,56,4.30
2017,03,15,06,57,4.30
2017,03,15,06,58,4.20
2017,03,15,06,59,4.20
2017,03,15,07,00,4.20
2017,03,15,07,01,4.20
2017,03,15,07,02,4.20
2017,03,15,07,03,4.20
2017,03,15,07,04,4.20
2017,03,15,07,05,4.20
2017,03,15,07,06,4.20
2017,03,15,07,07,4.20
2017,03,15,07,08,4.20
2017,03,15,07,09,4.20
2017,03,15,07,10,4.20
2017,03,15,07,11,4.20
2017,03,15,07,12,4.20
2017,03,15,07,13,4.20
2017,03,15,07,14,4.20
2017,03,15,07,15,4.20
2017,03,15,07,16,4.20
2017,03,15,07,17,4.20
2017,03,15,07,18,4.20
2017,03,15,07,19,4.20
2017,03,15,07,20,4.10
2017,03,15,07,21,4.10
2017,03,15,07,22,4.10
2017,03,15,07,23,4.10
2017,03,15,07,24,4.10
2017,03,15,07,25,4.10
2017,03,15,07,26,4.10
2017,03,15,07,27,4.10
2017,03,15,07,28,4.10
2017,03,15,07,29,4.10
2017,03,15,07,30,4.00
2017,03,15,07,31,4.00
2017,03,15,07,32,4.00
2017,03,15,07,33,4.00
2017,03,15,07,34,4.00
2017,03,15,07,35,3.90
2017,03,15,07,36,3.90
2017,03,15,07,37,3.90
2017,03,15,07,38,3.90
2017,03,15,07,39,3.90
2017,03,15,07,40,3.90
2017,03,15,07,41,3.90
2017,03,15,07,42,3.90
2017,03,15,07,43,3.90
2017,03,15,07,44,3.90
2017,03,15,07,45,3.90
2017,03,15,07,46,3.90
2017,03,15,07,47,3.90
2017,03,15,07,48,3.90
2017,03,15,07,49,3.90
2017,03,15,07,50,3.90
2017,03,15,07,51,3.90
2017,03,15,07,52,3.90
2017,03,15,07,53,3.90
2017,03,15,07,54,3.90
2017,03,15,07,55,3.90
2017,03,15,07,56,3.90
2017,03,15,07,57,3.90
2017,03,15,07,58,3.90
2017,03,15,07,59,3.90
2017,03,15,08,00,3.90
2017,03,15,08,01,3.90
2017,03,15,08,02,3.90
2017,03,15,08,03,3.90
2017,03,15,08,04,3.90
2017,03,15,08,05,3.90
2017,03,15,08,06,3.90
2017,03,15,08,07,3.90
2017,03,15,08,08,3.90
2017,03,15,08,09,3.90
2017,03,15,08,10,4.00
2017,03,15,08,11,4.00
2017,03,15,08,12,4.00
2017,03,15,08,13,4.00
2017,03,15,08,14,4.00
2017,03,15,08,15,4.10
2017,03,15,08,16,4.10
2017,03,15,08,17,4.10
2017,03,15,08,18,4.10
2017,03,15,08,19,4.10
2017,03,15,08,20,4.10
2017,03,15,08,21,4.10
2017,03,15,08,22,4.20
2017,03,15,08,23,4.20
2017,03,15,08,24,4.20
2017,03,15,08,25,4.20
2017,03,15,08,26,4.20
2017,03,15,08,27,4.20
2017,03,15,08,28,4.20
2017,03,15,08,29,4.20
2017,03,15,08,30,4.30
2017,03,15,08,31,4.30
2017,03,15,08,32,4.30
2017,03,15,08,33,4.30
2017,03,15,08,34,4.30
2017,03,15,08,35,4.30
2017,03,15,08,36,4.30
2017,03,15,08,37,4.40
2017,03,15,08,38,4.40
2017,03,15,08,39,4.40
2017,03,15,08,40,4.40
2017,03,15,08,41,4.40
2017,03,15,08,42,4.50
2017,03,15,08,43,4.50
2017,03,15,08,44,4.50
2017,03,15,08,45,4.50
2017,03,15,08,46,4.60
2017,03,15,08,47,4.60
2017,03,15,08,48,4.60
2017,03,15,08,49,4.60
2017,03,15,08,50,4.60
2017,03,15,08,51,4.70
2017,03,15,08,52,4.70
2017,03,15,08,53,4.70
2017,03,15,08,54,4.70
2017,03,15,08,55,4.70
2017,03,15,08,56,4.70
2017,03,15,08,57,4.80
2017,03,15,08,58,4.80
2017,03,15,08,59,4.80
2017,03,15,09,00,4.80
2017,03,15,09,01,4.90
2017,03,15,09,02,4.90
2017,03,15,09,03,4.90
2017,03,15,09,04,5.00
2017,03,15,09,05,5.00
2017,03,15,09,06,5.10
2017,03,15,09,07,5.10
2017,03,15,09,08,5.10
2017,03,15,09,09,5.10
2017,03,15,09,10,5.20
2017,03,15,09,11,5.20
2017,03,15,09,12,5.20
2017,03,15,09,13,5.30
2017,03,15,09,14,5.30
2017,03,15,09,15,5.30
2017,03,15,09,16,5.30
2017,03,15,09,17,5.40
2017,03,15,09,18,5.40
2017,03,15,09,19,5.40
2017,03,15,09,20,5.40
2017,03,15,09,21,5.50
2017,03,15,09,22,5.50
2017,03,15,09,23,5.60
2017,03,15,09,24,5.60
2017,03,15,09,25,5.70
2017,03,15,09,26,5.70
2017,03,15,09,27,5.80
2017,03,15,09,28,5.80
2017,03,15,09,29,5.80
2017,03,15,09,30,5.90
2017,03,15,09,31,5.90
2017,03,15,09,32,6.00
2017,03,15,09,33,6.00
2017,03,15,09,34,6.10
2017,03,15,09,35,6.10
2017,03,15,09,36,6.20
2017,03,15,09,37,6.20
2017,03,15,09,38,6.30
2017,03,15,09,39,6.30
2017,03,15,09,40,6.30
2017,03,15,09,41,6.40
2017,03,15,09,42,6.40
2017,03,15,09,43,6.50
2017,03,15,09,44,6.60
2017,03,15,09,45,6.60
2017,03,15,09,46,6.60
2017,03,15,09,47,6.70
2017,03,15,09,48,6.70
2017,03,15,09,49,6.80
2017,03,15,09,50,6.80
2017,03,15,09,51,6.90
2017,03,15,09,52,7.00
2017,03,15,09,53,7.00
2017,03,15,09,54,7.10
2017,03,15,09,55,7.10
2017,03,15,09,56,7.20
2017,03,15,09,57,7.20
2017,03,15,09,58,7.20
2017,03,15,09,59,7.20
2017,03,15,10,00,7.20
2017,03,15,10,01,7.20
2017,03,15,10,02,7.20
2017,03,15,10,03,7.20
2017,03,15,10,04,7.30
2017,03,15,10,05,7.30
2017,03,15,10,06,7.30
2017,03,15,10,07,7.40
2017,03,15,10,08,7.40
2017,03,15,10,09,7.40
2017,03,15,10,10,7.50
2017,03,15,10,11,7.50
2017,03,15,10,12,7.60
2017,03,15,10,13,7.60
2017,03,15,10,14,7.70
2017,03,15,10,15,7.70
2017,03,15,10,16,7.70
2017,03,15,10,17,7.80
2017,03,15,10,18,7.80
2017,03,15,10,19,7.80
2017,03,15,10,20,7.90
2017,03,15,10,21,7.90
2017,03,15,10,22,8.00
2017,03,15,10,23,8.00
2017,03,15,10,24,8.10
2017,03,15,10,25,8.10
2017,03,15,10,26,8.20
2017,03,15,10,27,8.20
2017,03,15,10,28,8.20
2017,03,15,10,29,8.20
2017,03,15,10,30,8.20
2017,03,15,10,31,8.20
2017,03,15,10,32,8.10
2017,03,15,10,33,8.10
2017,03,15,10,34,8.10
2017,03,15,10,35,8.20
2017,03,15,10,36,8.20
2017,03,15,10,37,8.20
2017,03,15,10,38,8.30
2017,03,15,10,39,8.30
2017,03,15,10,40,8.40
2017,03,15,10,41,8.40
2017,03,15,10,42,8.40
2017,03,15,10,43,8.40
2017,03,15,10,44,8.50
2017,03,15,10,45,8.50
2017,03,15,10,46,8.50
2017,03,15,10,47,8.60
2017,03,15,10,48,8.60
2017,03,15,10,49,8.60
2017,03,15,10,50,8.60
2017,03,15,10,51,8.60
2017,03,15,10,52,8.70
2017,03,15,10,53,8.80
2017,03,15,10,54,8.80
2017,03,15,10,55,8.90
2017,03,15,10,56,9.00
2017,03,15,10,57,9.00
2017,03,15,10,58,9.10
2017,03,15,10,59,9.20
2017,03,15,11,00,9.20
2017,03,15,11,01,9.30
2017,03,15,11,02,9.30
2017,03,15,11,03,9.40
2017,03,15,11,04,9.40
2017,03,15,11,05,9.40
2017,03,15,11,06,9.50
2017,03,15,11,07,9.50
2017,03,15,11,08,9.60
2017,03,15,11,09,9.60
2017,03,15,11,10,9.60
2017,03,15,11,11,9.60
2017,03,15,11,12,9.60
2017,03,15,11,13,9.60
2017,03,15,11,14,9.60
2017,03,15,11,15,9.60
2017,03,15,11,16,9.50
2017,03,15,11,17,9.50
2017,03,15,11,18,9.50
2017,03,15,11,19,9.50
2017,03,15,11,20,9.50
2017,03,15,11,21,9.50
2017,03,15,11,22,9.50
2017,03,15,11,23,9.50
2017,03,15,11,24,9.50
2017,03,15,11,25,9.50
2017,03,15,11,26,9.50
2017,03,15,11,27,9.50
2017,03,15,11,28,9.40
2017,03,15,11,29,9.40
2017,03,15,11,30,9.40
2017,03,15,11,31,9.40
2017,03,15,11,32,9.40
2017,03,15,11,33,9.40
2017,03,15,11,34,9.40
2017,03,15,11,35,9.40
2017,03,15,11,36,9.30
2017,03,15,11,37,9.30
2017,03,15,11,38,9.30
2017,03,15,11,39,9.30
2017,03,15,11,40,9.40
2017,03,15,11,41,9.40
2017,03,15,11,42,9.40
2017,03,15,11,43,9.50
2017,03,15,11,44,9.50
2017,03,15,11,45,9.60
2017,03,15,11,46,9.60
2017,03,15,11,47,9.70
2017,03,15,11,48,9.70
2017,03,15,11,49,9.70
2017,03,15,11,50,9.80
2017,03,15,11,51,9.80
2017,03,15,11,52,9.80
2017,03,15,11,53,9.80
2017,03,15,11,54,9.90
2017,03,15,11,55,9.90
2017,03,15,11,56,10.00
2017,03,15,11,57,10.10
2017,03,15,11,58,10.10
2017,03,15,11,59,10.20
2017,03,15,12,00,10.20
2017,03,15,12,01,10.20
2017,03,15,12,02,10.20
2017,03,15,12,03,10.20
2017,03,15,12,04,10.20
2017,03,15,12,05,10.20
2017,03,15,12,06,10.20
2017,03,15,12,07,10.30
2017,03,15,12,08,10.30
2017,03,15,12,09,10.30
2017,03,15,12,10,10.40
2017,03,15,12,11,10.40
2017,03,15,12,12,10.40
2017,03,15,12,13,10.40
2017,03,15,12,14,10.40
2017,03,15,12,15,10.40
2017,03,15,12,16,10.40
2017,03,15,12,17,10.40
2017,03,15,12,18,10.50
2017,03,15,12,19,10.40
2017,03,15,12,20,10.40
2017,03,15,12,21,10.40
2017,03,15,12,22,10.40
2017,03,15,12,23,10.40
2017,03,15,12,24,10.40
2017,03,15,12,25,10.30
2017,03,15,12,26,10.30
2017,03,15,12,27,10.30
2017,03,15,12,28,10.30
2017,03,15,12,29,10.30
2017,03,15,12,30,10.20
2017,03,15,12,31,10.10
2017,03,15,12,32,10.10
2017,03,15,12,33,10.10
2017,03,15,12,34,10.10
2017,03,15,12,35,10.10
2017,03,15,12,36,10.00
2017,03,15,12,37,10.00
2017,03,15,12,38,9.90
2017,03,15,12,39,9.90
2017,03,15,12,40,9.90
2017,03,15,12,41,9.90
2017,03,15,12,42,9.80
2017,03,15,12,43,9.80
2017,03,15,12,44,9.80
2017,03,15,12,45,9.80
2017,03,15,12,46,9.90
2017,03,15,12,47,9.90
2017,03,15,12,48,9.90
2017,03,15,12,49,10.00
2017,03,15,12,50,10.00
2017,03,15,12,51,10.10
2017,03,15,12,52,10.10
2017,03,15,12,53,10.20
2017,03,15,12,54,10.30
2017,03,15,12,55,10.40
2017,03,15,12,56,10.40
2017,03,15,12,57,10.30
2017,03,15,12,58,10.40
2017,03,15,12,59,10.40
2017,03,15,13,00,10.40
2017,03,15,13,01,10.40
2017,03,15,13,02,10.40
2017,03,15,13,03,10.50
2017,03,15,13,04,10.50
2017,03,15,13,05,10.50
2017,03,15,13,06,10.60
2017,03,15,13,07,10.70
2017,03,15,13,08,10.80
2017,03,15,13,09,10.90
2017,03,15,13,10,11.00
2017,03,15,13,11,11.00
2017,03,15,13,12,11.20
2017,03,15,13,13,11.30
2017,03,15,13,14,11.30
2017,03,15,13,15,11.40
2017,03,15,13,16,11.50
2017,03,15,13,17,11.60
2017,03,15,13,18,11.60
2017,03,15,13,19,11.60
2017,03,15,13,20,11.60
2017,03,15,13,21,11.70
2017,03,15,13,22,11.60
2017,03,15,13,23,11.70
2017,03,15,13,24,11.70
2017,03,15,13,25,11.70
2017,03,15,13,26,11.70
2017,03,15,13,27,11.70
2017,03,15,13,28,11.70
2017,03,15,13,29,11.60
2017,03,15,13,30,11.50
2017,03,15,13,31,11.50
2017,03,15,13,32,11.40
2017,03,15,13,33,11.40
2017,03,15,13,34,11.30
2017,03,15,13,35,11.40
2017,03,15,13,36,11.40
2017,03,15,13,37,11.40
2017,03,15,13,38,11.40
2017,03,15,13,39,11.40
2017,03,15,13,40,11.40
2017,03,15,13,41,11.40
2017,03,15,13,42,11.40
2017,03,15,13,43,11.40
2017,03,15,13,44,11.40
2017,03,15,13,45,11.40
2017,03,15,13,46,11.40
2017,03,15,13,47,11.40
2017,03,15,13,48,11.40
2017,03,15,13,49,11.40
2017,03,15,13,50,11.40
2017,03,15,13,51,11.40
2017,03,15,13,52,11.40
2017,03,15,13,53,11.30
2017,03,15,13,54,11.20
2017,03,15,13,55,11.20
2017,03,15,13,56,11.20
2017,03,15,13,57,11.20
2017,03,15,13,58,11.20
2017,03,15,13,59,11.20
2017,03,15,14,00,11.30
2017,03,15,14,01,11.30
2017,03,15,14,02,11.30
2017,03,15,14,03,11.30
2017,03,15,14,04,11.30
2017,03,15,14,05,11.30
2017,03,15,14,06,11.30
2017,03,15,14,07,11.30
2017,03,15,14,08,11.30
2017,03,15,14,09,11.30
2017,03,15,14,10,11.40
2017,03,15,14,11,11.50
2017,03,15,14,12,11.50
2017,03,15,14,13,11.60
2017,03,15,14,14,11.60
2017,03,15,14,15,11.50
2017,03,15,14,16,11.50
2017,03,15,14,17,11.40
2017,03,15,14,18,11.30
2017,03,15,14,19,11.30
2017,03,15,14,20,11.30
2017,03,15,14,21,11.20
2017,03,15,14,22,11.20
2017,03,15,14,23,11.10
2017,03,15,14,24,11.00
2017,03,15,14,25,10.90
2017,03,15,14,26,10.80
2017,03,15,14,27,10.80
2017,03,15,14,28,10.80
2017,03,15,14,29,10.80
2017,03,15,14,30,10.70
2017,03,15,14,31,10.70
2017,03,15,14,32,10.70
2017,03,15,14,33,10.70
2017,03,15,14,34,10.70
2017,03,15,14,35,10.70
2017,03,15,14,36,10.70
2017,03,15,14,37,10.70
2017,03,15,14,38,10.70
2017,03,15,14,39,10.80
2017,03,15,14,40,10.80
2017,03,15,14,41,10.90
2017,03,15,14,42,11.00
2017,03,15,14,43,11.10
2017,03,15,14,44,11.20
2017,03,15,14,45,11.20
2017,03,15,14,46,11.20
2017,03,15,14,47,11.20
2017,03,15,14,48,11.30
2017,03,15,14,49,11.30
2017,03,15,14,50,11.30
2017,03,15,14,51,11.20
2017,03,15,14,52,11.20
2017,03,15,14,53,11.20
2017,03,15,14,54,11.10
2017,03,15,14,55,11.10
2017,03,15,14,56,11.10
2017,03,15,14,57,11.10
2017,03,15,14,58,11.10
2017,03,15,14,59,11.10
2017,03,15,15,00,11.10
2017,03,15,15,01,11.00
2017,03,15,15,02,11.00
2017,03,15,15,03,10.90
2017,03,15,15,04,10.90
2017,03,15,15,05,10.90
2017,03,15,15,06,10.90
2017,03,15,15,07,10.90
2017,03,15,15,08,10.90
2017,03,15,15,09,10.90
2017,03,15,15,10,10.90
2017,03,15,15,11,11.00
2017,03,15,15,12,11.00
2017,03,15,15,13,11.00
2017,03,15,15,14,11.00
2017,03,15,15,15,10.90
2017,03,15,15,16,11.00
2017,03,15,15,17,11.00
2017,03,15,15,18,10.90
2017,03,15,15,19,10.90
2017,03,15,15,20,10.90
2017,03,15,15,21,10.90
2017,03,15,15,22,10.80
2017,03,15,15,23,10.80
2017,03,15,15,24,10.80
2017,03,15,15,25,10.80
2017,03,15,15,26,10.80
2017,03,15,15,27,10.80
2017,03,15,15,28,10.80
2017,03,15,15,29,10.80
2017,03,15,15,30,10.80
2017,03,15,15,31,10.80
2017,03,15,15,32,10.80
2017,03,15,15,33,10.80
2017,03,15,15,34,10.70
2017,03,15,15,35,10.70
2017,03,15,15,36,10.60
2017,03,15,15,37,10.50
2017,03,15,15,38,10.40
2017,03,15,15,39,10.40
2017,03,15,15,40,10.30
2017,03,15,15,41,10.30
2017,03,15,15,42,10.30
2017,03,15,15,43,10.20
2017,03,15,15,44,10.20
2017,03,15,15,45,10.20
2017,03,15,15,46,10.20
2017,03,15,15,47,10.10
2017,03,15,15,48,10.10
2017,03,15,15,49,10.10
2017,03,15,15,50,10.10
2017,03,15,15,51,10.20
2017,03,15,15,52,10.20
2017,03,15,15,53,10.20
2017,03,15,15,54,10.20
2017,03,15,15,55,10.30
2017,03,15,15,56,10.30
2017,03,15,15,57,10.30
2017,03,15,15,58,10.30
2017,03,15,15,59,10.30
2017,03,15,16,00,10.30
2017,03,15,16,01,10.30
2017,03,15,16,02,10.30
2017,03,15,16,03,10.20
2017,03,15,16,04,10.20
2017,03,15,16,05,10.20
2017,03,15,16,06,10.10
2017,03,15,16,07,10.10
2017,03,15,16,08,10.00
2017,03,15,16,09,9.90
2017,03,15,16,10,9.90
2017,03,15,16,11,9.90
2017,03,15,16,12,9.80
2017,03,15,16,13,9.80
2017,03,15,16,14,9.80
2017,03,15,16,15,9.80
2017,03,15,16,16,9.80
2017,03,15,16,17,9.80
2017,03,15,16,18,9.80
2017,03,15,16,19,9.80
2017,03,15,16,20,9.80
2017,03,15,16,21,9.80
2017,03,15,16,22,9.80
2017,03,15,16,23,9.80
2017,03,15,16,24,9.80
2017,03,15,16,25,9.80
2017,03,15,16,26,9.80
2017,03,15,16,27,9.90
2017,03,15,16,28,9.90
2017,03,15,16,29,9.90
2017,03,15,16,30,9.90
2017,03,15,16,31,9.80
2017,03,15,16,32,9.90
2017,03,15,16,33,9.80
2017,03,15,16,34,9.80
2017,03,15,16,35,9.80
2017,03,15,16,36,9.80
2017,03,15,16,37,9.80
2017,03,15,16,38,9.90
2017,03,15,16,39,9.90
2017,03,15,16,40,9.90
2017,03,15,16,41,9.90
2017,03,15,16,42,9.90
2017,03,15,16,43,9.90
2017,03,15,16,44,9.80
2017,03,15,16,45,9.80
2017,03,15,16,46,9.80
2017,03,15,16,47,9.70
2017,03,15,16,48,9.70
2017,03,15,16,49,9.70
2017,03,15,16,50,9.60
2017,03,15,16,51,9.50
2017,03,15,16,52,9.40
2017,03,15,16,53,9.40
2017,03,15,16,54,9.30
2017,03,15,16,55,9.30
2017,03,15,16,56,9.20
2017,03,15,16,57,9.20
2017,03,15,16,58,9.20
2017,03,15,16,59,9.10
2017,03,15,17,00,9.10
2017,03,15,17,01,9.10
2017,03,15,17,02,9.00
2017,03,15,17,03,9.00
2017,03,15,17,04,8.90
2017,03,15,17,05,8.90
2017,03,15,17,06,8.90
2017,03,15,17,07,8.90
2017,03,15,17,08,8.90
2017,03,15,17,09,8.90
2017,03,15,17,10,8.80
2017,03,15,17,11,8.80
2017,03,15,17,12,8.80
2017,03,15,17,13,8.80
2017,03,15,17,14,8.80
2017,03,15,17,15,8.80
2017,03,15,17,16,8.70
2017,03,15,17,17,8.70
2017,03,15,17,18,8.70
2017,03,15,17,19,8.70
2017,03,15,17,20,8.70
2017,03,15,17,21,8.70
2017,03,15,17,22,8.70
2017,03,15,17,23,8.70
2017,03,15,17,24,8.70
2017,03,15,17,25,8.60
2017,03,15,17,26,8.60
2017,03,15,17,27,8.60
2017,03,15,17,28,8.60
2017,03,15,17,29,8.50
2017,03,15,17,30,8.50
2017,03,15,17,31,8.50
2017,03,15,17,32,8.50
2017,03,15,17,33,8.50
2017,03,15,17,34,8.50
2017,03,15,17,35,8.40
2017,03,15,17,36,8.40
2017,03,15,17,37,8.40
2017,03,15,17,38,8.40
2017,03,15,17,39,8.40
2017,03,15,17,40,8.30
2017,03,15,17,41,8.30
2017,03,15,17,42,8.30
2017,03,15,17,43,8.30
2017,03,15,17,44,8.30
2017,03,15,17,45,8.20
2017,03,15,17,46,8.20
2017,03,15,17,47,8.20
2017,03,15,17,48,8.20
2017,03,15,17,49,8.20
2017,03,15,17,50,8.20
2017,03,15,17,51,8.20
2017,03,15,17,52,8.20
2017,03,15,17,53,8.20
2017,03,15,17,54,8.20